Find INTELSAT III F-4

NORAD ID: 3947 Int'l Des: 1969-045 Owner: INTEL Country: I-INT operational
HEOCIRCULAR

Live Position

Loading 3D Globe...

About INTELSAT III F-4

Description loading...

Upcoming Passes

Passes for default location (London). Set your location on the main map for personalized predictions.

Altitude History

Loading altitude history...

Two-Line Element Set

1 03947U 69045A 26105.92708094 -.00000098 00000-0 00000-0 0 9998
2 03947 3.9117 288.6115 0024822 76.1633 100.9774 0.90044808 65407
Epoch: Apr 15, 2026 • Age: 17 hours

Current Status

Altitude 38827.3 km
Velocity 2.97 km/s
Sub-Earth Point 2.66°N, 97.9°W
Type communications

Most Searched